Location: Arrodets-la-Barthe
(43.0306°N, 0.2829°E)
Time: 13:19:19
(UTC+00:00)

Lacrosse 4 Rocket - Pass Details

Date: 06 June 2022
Orbit: 541 x 611 km, 68.0° (Epoch: 03 July)

Event Time Altitude Azimuth Distance (km) Brightness Sun altitude
Exits shadow 00:33:08 19° 98° (E) 1,383 3.3 -23.8°
Drops below altitude 10° 00:35:39 10° 61° (ENE) 1,869 4.5 -23.8°
Sets 00:38:18 0° 44° (NE) 2,757 5.8 -23.7°
